time_stamp(utc),avg(mph),gust(mph),direction(deg),12m_air_temp(f),sonic_u(cm/s),sonic_v(cm/s),sonic_w(cm/s),pressure,2m_air_temp(f),pyranometer(W/m^2)
"2019-12-25 00:03:34+00",7.2,8.2,,39.4,-221,944,-395,1021.39,35.4,0
"2019-12-25 00:08:34+00",7.9,8.9,,39.4,-144,889,-353,1021.4,35.2,0
"2019-12-25 00:13:34+00",6.3,7.3,,39.1,-95,740,-311,1021.45,35,0
"2019-12-25 00:18:34+00",7.9,8.9,,39.2,-244,1063,-446,1021.31,34.7,0
"2019-12-25 00:23:34+00",8.1,8.1,,39.6,-334,1221,-528,1021.29,34.8,0
"2019-12-25 00:28:34+00",8.6,9.6,,39.6,-47,735,-240,1021.31,34.9,0
"2019-12-25 00:33:34+00",8.4,8.4,,39.6,10,625,-182,1021.41,35.1,0
"2019-12-25 00:38:34+00",7.5,7.5,,39.3,58,440,-94,1021.48,35.2,0
"2019-12-25 00:43:34+00",7.1,7.1,,39.2,45,366,-54,1021.69,35.1,0
"2019-12-25 00:48:34+00",7.0,7.0,,39.1,92,321,-31,1021.69,34.8,0
"2019-12-25 00:53:34+00",7.9,8.9,,39.1,116,395,-66,1021.57,34.8,0
"2019-12-25 00:58:34+00",8.0,8.0,,38.9,137,352,-29,1021.52,34.8,0
"2019-12-25 01:03:34+00",6.7,6.7,,38.5,98,333,-83,1021.57,34.7,0
"2019-12-25 01:08:34+00",7.5,7.5,,38.4,157,284,-39,1021.58,34.4,0
"2019-12-25 01:13:34+00",9.1,9.1,,38.7,132,459,-80,1021.6,34.5,0
"2019-12-25 01:18:34+00",9.9,9.9,,38.7,62,655,-166,1021.5,34.3,0
"2019-12-25 01:23:34+00",10.1,10.1,,38.5,8,754,-226,1021.64,33.9,0
"2019-12-25 01:28:34+00",10.0,10.0,,38.3,-32,834,-251,1021.58,33.7,0
"2019-12-25 01:33:34+00",9.7,10.7,,37.7,-76,875,-294,1021.67,33.7,0
"2019-12-25 01:38:34+00",8.4,8.4,,37.9,117,401,-89,1021.7,33.7,0
"2019-12-25 01:43:34+00",9.4,9.4,,37.9,-76,847,-273,1021.62,33.7,0
"2019-12-25 01:48:34+00",11.1,12.1,,38.4,-489,1672,-673,1021.73,33.8,0
"2019-12-25 01:53:34+00",10.2,11.2,,38.4,-538,1637,-674,1021.71,33.8,0
"2019-12-25 01:58:34+00",10.7,11.7,,38.2,-982,2383,-1085,1021.7,33.9,0
"2019-12-25 02:03:34+00",10.0,11.0,,38.2,-613,1786,-763,1021.6,34,0
"2019-12-25 02:08:34+00",10.0,11.0,,38,-340,1355,-531,1021.69,33.9,0
"2019-12-25 02:13:34+00",9.7,10.7,,37.9,-113,947,-324,1021.67,33.9,0
"2019-12-25 02:18:34+00",10.0,11.0,,37.9,-162,1047,-360,1021.66,33.8,0
"2019-12-25 02:23:34+00",8.8,9.8,,37.9,48,598,-159,1021.76,33.7,0
"2019-12-25 02:28:34+00",8.6,9.6,,37.7,68,547,-135,1021.78,33.7,0
"2019-12-25 02:33:34+00",9.5,10.5,,37.7,-42,805,-249,1021.83,33.7,0
"2019-12-25 02:38:34+00",9.2,10.2,,37.5,73,562,-167,1021.86,33.6,0
"2019-12-25 02:43:34+00",9.3,10.3,,37.5,-11,738,-230,1021.98,33.7,0
"2019-12-25 02:48:34+00",10.2,11.2,,37.6,-203,1133,-405,1021.99,33.6,0
"2019-12-25 02:53:34+00",10.0,11.0,,37.4,-90,913,-308,1021.7,33.4,0
"2019-12-25 02:58:34+00",9.6,10.6,,37,16,695,-213,1021.71,33.4,0
"2019-12-25 03:03:34+00",10.7,10.7,,37,-442,1580,-635,1021.72,33.4,0
"2019-12-25 03:08:34+00",10.5,11.5,,36.8,-885,2291,-1029,1021.87,33.3,0
"2019-12-25 03:13:34+00",9.5,10.5,,36.5,-657,1794,-780,1021.86,33.2,0
"2019-12-25 03:18:34+00",9.9,10.9,,36.4,-891,2116,-934,1021.97,33.2,0
"2019-12-25 03:23:34+00",10.1,11.1,,36.4,-765,1910,-815,1021.98,32.9,0
"2019-12-25 03:28:34+00",9.5,10.5,,36.5,-578,1578,-656,1021.91,32.9,0
"2019-12-25 03:33:34+00",9.9,10.9,,36.6,-244,1186,-436,1021.75,33.2,0
"2019-12-25 03:38:34+00",11.1,12.1,,36.5,-1090,2677,-1234,1021.77,33.2,0
"2019-12-25 03:43:34+00",9.2,10.2,,36.3,-590,1669,-716,1021.87,33.2,0
"2019-12-25 03:48:34+00",9.5,9.5,,36.1,-302,1245,-491,1021.69,33.1,0
"2019-12-25 03:53:34+00",8.5,9.5,,36,-86,804,-266,1021.69,32.8,0
"2019-12-25 03:58:34+00",9.0,10.0,,36.1,-376,1275,-509,1021.82,32.8,0
"2019-12-25 04:03:34+00",8.9,8.9,,36.2,-561,1495,-627,1021.81,32.7,0
"2019-12-25 04:08:34+00",10.4,10.4,,36.3,-1000,2375,-1089,1021.92,32.6,0
"2019-12-25 04:13:34+00",8.6,8.6,,36.3,-380,1224,-491,1021.85,32.7,0
"2019-12-25 04:18:34+00",8.5,8.5,,36.5,-195,858,-291,1021.7,32.7,0
"2019-12-25 04:23:34+00",7.2,8.2,,36.4,-173,682,-209,1021.83,32.6,0
"2019-12-25 04:28:34+00",8.3,9.3,,36.2,-478,1300,-511,1021.79,32.4,0
"2019-12-25 04:33:34+00",8.4,8.4,,36.3,-266,1059,-397,1021.67,32.4,0
"2019-12-25 04:38:34+00",7.1,7.1,,36.2,52,437,-103,1021.63,32.5,0
"2019-12-25 04:43:34+00",7.6,7.6,,36.1,-108,744,-249,1021.56,32.5,0
"2019-12-25 04:48:34+00",8.9,8.9,,36.1,-634,1720,-747,1021.57,32.5,0
"2019-12-25 04:53:34+00",8.2,9.2,,36,-339,1090,-425,1021.51,32.4,0
"2019-12-25 04:58:34+00",8.7,9.7,,36,-652,1630,-691,1021.46,32.2,0
"2019-12-25 05:03:34+00",8.4,8.4,,35.9,-731,1738,-753,1021.49,31.8,0
"2019-12-25 05:08:34+00",9.1,9.1,,35.9,-1011,2237,-1012,1021.4,31.6,0
"2019-12-25 05:13:34+00",8.5,8.5,,35.9,-636,1602,-683,1021.41,31.4,0
"2019-12-25 05:18:34+00",9.0,9.0,,35.8,-264,1053,-382,1021.48,31.5,0
"2019-12-25 05:23:34+00",9.0,10.0,,35.8,-362,1165,-452,1021.43,31.6,0
"2019-12-25 05:28:34+00",9.1,10.1,,35.6,-946,2164,-979,1021.54,31.4,0
"2019-12-25 05:33:34+00",8.2,9.2,,35.2,-1003,2145,-985,1021.45,31.1,0
"2019-12-25 05:38:34+00",8.4,8.4,,35.1,-855,1942,-867,1021.3,30.9,0
"2019-12-25 05:43:34+00",9.2,10.2,,35.1,-1542,3135,-1504,1021.39,30.8,0
"2019-12-25 05:48:34+00",9.7,10.7,,35.1,-1757,3521,-1705,1021.35,30.6,0
"2019-12-25 05:53:34+00",10.7,11.7,,35,-1949,3913,-1901,1021.49,30.5,0
"2019-12-25 05:58:34+00",10.0,11.0,,34.8,-1950,3887,-1904,1021.59,30.6,0
"2019-12-25 06:03:34+00",9.9,10.9,,34.6,-1896,3796,-1851,1021.62,30.8,0
"2019-12-25 06:08:34+00",9.9,11.9,,34.7,-1845,3684,-1792,1021.75,30.9,0
"2019-12-25 06:13:34+00",11.0,12.0,,34.7,-2003,3967,-1921,1021.8,31,0
"2019-12-25 06:18:34+00",10.0,12.0,,34.8,-1789,3652,-1775,1021.71,31.2,0
"2019-12-25 06:23:34+00",8.8,9.8,,34.8,-826,1958,-882,1021.78,31.4,0
"2019-12-25 06:28:34+00",8.6,9.6,,34.9,-826,1976,-897,1021.81,31.7,0
"2019-12-25 06:33:34+00",8.3,9.3,,35,-723,1821,-820,1021.71,32.1,0
"2019-12-25 06:38:34+00",8.4,9.4,,34.9,-671,1707,-762,1021.8,32.2,0
"2019-12-25 06:43:34+00",7.2,7.2,,34.6,13,482,-120,1021.76,32,0
"2019-12-25 06:48:34+00",7.0,7.0,,34.5,1,467,-123,1021.86,31.8,0
"2019-12-25 06:53:34+00",8.0,8.0,,34.5,-420,1197,-479,1021.94,31.5,0
"2019-12-25 06:58:34+00",9.2,10.2,,34.4,-725,1802,-800,1021.91,31.4,0
"2019-12-25 07:03:34+00",8.9,9.9,,34.1,-850,2004,-910,1021.95,31.3,0
"2019-12-25 07:08:34+00",9.0,10.0,,34,-998,2289,-1073,1021.95,31.2,0
"2019-12-25 07:13:34+00",8.5,9.5,,33.8,-831,1947,-882,1021.98,31.1,0
"2019-12-25 07:18:34+00",8.6,9.6,,33.6,-1330,2806,-1349,1021.89,31,0
"2019-12-25 07:23:34+00",8.6,9.6,,33.7,-897,2083,-964,1022.01,30.9,0
"2019-12-25 07:28:34+00",8.2,9.2,,33.9,-737,1779,-800,1021.92,30.9,0
"2019-12-25 07:33:34+00",7.8,8.8,,33.7,-689,1710,-773,1021.94,30.9,0
"2019-12-25 07:38:34+00",8.1,8.1,,33.7,-693,1746,-787,1021.97,30.8,0
"2019-12-25 07:43:34+00",8.6,9.6,,33.8,-1206,2643,-1274,1022.03,30.7,0
"2019-12-25 07:48:34+00",9.2,10.2,,33.8,-1439,3125,-1525,1022.11,30.6,0
"2019-12-25 07:53:34+00",9.1,10.1,,33.8,-1386,3056,-1489,1022.11,30.5,0
"2019-12-25 07:58:34+00",8.4,8.4,,33.7,-1428,3045,-1494,1022.24,30.4,0
"2019-12-25 08:03:34+00",8.4,8.4,,33.8,-1567,3202,-1570,1022.33,30.4,0
"2019-12-25 08:08:34+00",7.3,8.3,,33.6,-990,2119,-993,1022.3,30.3,0
"2019-12-25 08:13:34+00",5.9,6.9,,33.6,-112,359,-63,1022.44,30.1,0
"2019-12-25 08:18:34+00",6.9,7.9,,33.4,-226,582,-176,1022.42,29.9,0
"2019-12-25 08:23:34+00",7.8,8.8,,33.5,-679,1429,-587,1022.47,29.8,0
"2019-12-25 08:28:34+00",7.9,8.9,,33.8,-816,1676,-719,1022.45,29.6,0
"2019-12-25 08:33:34+00",7.1,7.1,,33.6,-508,1087,-423,1022.61,29.6,0
"2019-12-25 08:38:34+00",7.2,7.2,,33.7,-823,1723,-782,1022.54,29.5,0
"2019-12-25 08:43:34+00",6.0,7.0,,33.4,-464,1006,-409,1022.47,29.4,0
"2019-12-25 08:48:34+00",5.9,5.9,,33,-338,764,-288,1022.39,29.3,0
"2019-12-25 08:53:34+00",6.0,7.0,,33,-564,1199,-519,1022.4,29,0
"2019-12-25 08:58:34+00",6.5,7.5,,33.1,-620,1395,-612,1022.4,28.9,0
"2019-12-25 09:03:34+00",7.2,7.2,,33.4,-798,1693,-762,1022.37,28.8,0
"2019-12-25 09:08:34+00",7.1,8.1,,33.2,-554,1204,-488,1022.42,28.6,0
"2019-12-25 09:13:34+00",7.5,8.5,,33.1,-446,980,-358,1022.53,28.6,0
"2019-12-25 09:18:34+00",7.1,7.1,,32.6,-210,308,-20,1022.64,28.8,0
"2019-12-25 09:23:34+00",6.8,7.8,,32.4,-207,299,-22,1022.6,29.4,0
"2019-12-25 09:28:34+00",7.1,7.1,,32.2,-254,463,-105,1022.66,29.6,0
"2019-12-25 09:33:34+00",7.4,8.4,,32,-207,348,-27,1022.73,29.5,0
"2019-12-25 09:38:34+00",6.0,7.0,,32,-229,425,-98,1022.57,29.6,0
"2019-12-25 09:43:34+00",5.4,5.4,,32,-170,318,-62,1022.61,29.5,0
"2019-12-25 09:48:34+00",4.7,4.7,,32.1,-189,384,-107,1022.49,29.5,0
"2019-12-25 09:53:34+00",4.7,4.7,,32.1,-144,387,-116,1022.44,29.5,0
"2019-12-25 09:58:34+00",4.8,4.8,,32.1,-165,466,-152,1022.39,29.3,0
"2019-12-25 10:03:34+00",3.8,3.8,,32,-31,189,-20,1022.48,29.2,0
"2019-12-25 10:08:34+00",4.6,5.6,,32,-106,274,-57,1022.5,29.2,0
"2019-12-25 10:13:34+00",5.4,6.4,,32.1,-132,324,-52,1022.57,29.2,0
"2019-12-25 10:18:34+00",5.4,5.4,,32.3,-93,304,-44,1022.46,29.2,0
"2019-12-25 10:23:34+00",5.6,6.6,,32.4,-136,404,-101,1022.55,29.1,0
"2019-12-25 10:28:34+00",4.8,4.8,,32.5,-237,653,-248,1022.27,29,0
"2019-12-25 10:33:34+00",5.6,6.6,,32.6,-194,656,-245,1022.16,29,0
"2019-12-25 10:38:34+00",6.0,6.0,,32.8,-193,726,-269,1022.18,29,0
"2019-12-25 10:43:34+00",5.9,5.9,,33.4,-312,847,-328,1022.17,28.8,0
"2019-12-25 10:48:34+00",5.9,5.9,,33.4,-410,967,-397,1022.28,28.7,0
"2019-12-25 10:53:34+00",5.3,5.3,,33.5,-284,693,-261,1022.27,28.6,0
"2019-12-25 10:58:34+00",5.1,6.1,,33.3,-225,598,-216,1022.21,28.6,0
"2019-12-25 11:03:34+00",5.6,6.6,,33,-191,492,-156,1022.5,28.6,0
"2019-12-25 11:08:34+00",7.1,7.1,,32.9,-219,492,-117,1022.62,28.8,0
"2019-12-25 11:13:34+00",6.8,7.8,,32.9,-223,392,-61,1022.77,29.2,0
"2019-12-25 11:18:34+00",7.0,7.0,,32.8,-237,355,-52,1022.73,29.5,0
"2019-12-25 11:23:34+00",7.1,7.1,,32.8,-384,671,-208,1022.74,29.7,0
"2019-12-25 11:28:34+00",6.2,6.2,,32.7,-226,418,-101,1022.82,29.8,0
"2019-12-25 11:33:34+00",5.7,5.7,,33,-263,456,-131,1022.85,29.9,0
"2019-12-25 11:38:34+00",5.6,6.6,,33,-230,318,-57,1022.88,30.2,0
"2019-12-25 11:43:34+00",6.4,7.4,,33.2,-253,388,-77,1022.91,30.4,0
"2019-12-25 11:48:34+00",6.3,6.3,,33.1,-191,298,-29,1022.97,30.6,0
"2019-12-25 11:53:34+00",6.5,7.5,,33,-183,289,-13,1022.95,30.8,0
"2019-12-25 11:58:34+00",6.8,6.8,,32.9,-226,333,-44,1022.99,31,0
"2019-12-25 12:03:34+00",6.5,7.5,,32.8,-218,378,-68,1023.05,31.1,0
"2019-12-25 12:08:34+00",6.1,7.1,,32.8,-223,374,-73,1023.14,31.2,0
"2019-12-25 12:13:34+00",5.9,6.9,,32.7,-243,356,-81,1023.03,31.3,0
"2019-12-25 12:18:34+00",5.2,5.2,,32.8,-197,278,-48,1023.11,31.5,0
"2019-12-25 12:23:34+00",5.7,5.7,,33,-149,171,28,1023.09,31.7,0
"2019-12-25 12:28:34+00",5.8,6.8,,33.3,-167,188,15,1023.21,32,0
"2019-12-25 12:33:34+00",5.9,6.9,,33.6,-259,349,-68,1023.13,32.5,0
"2019-12-25 12:38:34+00",5.9,6.9,,34,-280,376,-93,1023.14,33.1,0
"2019-12-25 12:43:34+00",6.5,7.5,,34.1,-223,260,-4,1023.17,33.7,0
"2019-12-25 12:48:34+00",6.6,7.6,,34,-232,325,-47,1023.13,34.1,0
"2019-12-25 12:53:34+00",6.3,6.3,,34,-207,226,15,1023.15,34.6,0
"2019-12-25 12:58:34+00",7.2,8.2,,33.9,-301,356,-58,1023.21,35,0
"2019-12-25 13:03:34+00",6.0,7.0,,33.9,-176,214,27,1023.15,35.3,0.6
"2019-12-25 13:08:34+00",6.8,6.8,,33.7,-223,295,-31,1023.24,35.5,0
"2019-12-25 13:13:34+00",6.3,7.3,,33.5,-193,333,-39,1023.26,35.3,0
"2019-12-25 13:18:34+00",5.5,6.5,,33.3,-159,276,-31,1023.21,35.1,0
"2019-12-25 13:23:34+00",5.2,6.2,,33.4,-138,314,-59,1023.23,34.9,0
"2019-12-25 13:28:34+00",4.5,5.5,,33.3,-98,229,-19,1023.23,34.7,0
"2019-12-25 13:33:34+00",4.7,4.7,,33.4,-75,229,-16,1023.16,34.7,0
"2019-12-25 13:38:34+00",4.6,5.6,,33.6,-99,259,-37,1023.23,34.9,0
"2019-12-25 13:43:34+00",5.2,5.2,,33.9,-99,241,-14,1023.2,35.3,0.1
"2019-12-25 13:48:34+00",5.4,6.4,,34.4,-88,267,-18,1023.35,35.9,37.9
"2019-12-25 13:53:34+00",5.6,6.6,,34.9,-67,255,-4,1023.29,36.6,26.2
"2019-12-25 13:58:34+00",6.2,7.2,,35.4,-104,371,-66,1023.23,37.5,44.8
"2019-12-25 14:03:34+00",5.6,6.6,,35.8,-113,346,-64,1023.26,38.4,61.9
"2019-12-25 14:08:34+00",6.2,7.2,,36.2,-100,327,-35,1023.17,39.2,70.1
"2019-12-25 14:13:34+00",5.5,6.5,,36.8,-171,458,-127,1023.22,40.1,81.5
"2019-12-25 14:18:34+00",5.8,5.8,,37.5,-188,515,-158,1023.18,40.9,88.1
"2019-12-25 14:23:34+00",4.8,5.8,,38.2,-143,463,-143,1023.05,41.7,93.5
"2019-12-25 14:28:34+00",6.2,7.2,,38.7,-215,678,-243,1023.09,42.1,74.1
"2019-12-25 14:33:34+00",7.0,8.0,,39,-326,886,-328,1023.22,42.3,43.3
"2019-12-25 14:38:34+00",6.4,8.4,,39.3,-165,532,-149,1023.28,42.5,90.3
"2019-12-25 14:43:34+00",7.2,8.2,,39.8,-188,666,-223,1023.24,42.8,106.3
"2019-12-25 14:48:34+00",7.4,8.4,,40.1,-89,519,-132,1023.29,43.2,108.5
"2019-12-25 14:53:34+00",6.9,8.9,,40.7,27,336,-47,1023.17,43.4,135.2
"2019-12-25 14:58:34+00",7.4,8.4,,41.2,55,305,-25,1023.13,43.8,127.5
"2019-12-25 15:03:34+00",6.1,8.1,,41.8,113,218,16,1023.14,44.3,136.5
"2019-12-25 15:08:34+00",6.2,7.2,,42.1,28,268,9,1023.21,44.8,140.8
"2019-12-25 15:13:34+00",7.9,8.9,,42,117,306,1,1023.11,44.9,130.8
"2019-12-25 15:18:34+00",7.1,9.1,,42.1,149,238,13,1023.05,45.1,150.6
"2019-12-25 15:23:34+00",7.1,8.1,,42.4,184,218,24,1022.95,45.4,128.1
"2019-12-25 15:28:34+00",8.9,9.9,,42.4,183,323,2,1022.81,45.5,145.3
"2019-12-25 15:33:34+00",9.1,11.1,,42.5,227,311,4,1022.61,45.7,160.5
"2019-12-25 15:38:34+00",7.7,8.7,,42.9,195,248,15,1022.6,46,160
"2019-12-25 15:43:34+00",7.7,10.7,,43.2,206,230,24,1022.53,46.3,155.8
"2019-12-25 15:48:34+00",9.1,11.1,,43.3,197,330,-7,1022.53,46.2,149.2
"2019-12-25 15:53:34+00",8.3,10.3,,43.7,215,271,13,1022.58,46.5,162.1
"2019-12-25 15:58:34+00",8.7,10.7,,43.5,303,208,27,1022.51,46.4,144.1
"2019-12-25 16:03:34+00",8.5,9.5,,43.4,238,255,17,1022.47,46.4,157
"2019-12-25 16:08:34+00",9.6,10.6,,43.3,359,221,14,1022.21,46.3,133.8
"2019-12-25 16:13:34+00",9.9,10.9,,43.3,341,250,26,1022.19,46.3,170.2
"2019-12-25 16:18:34+00",8.9,9.9,,43.4,319,216,32,1022.06,46.4,135.1
"2019-12-25 16:23:34+00",11.2,11.2,,43.3,398,290,3,1022.02,46.2,138.9
"2019-12-25 16:28:34+00",10.9,11.9,,43.3,401,270,14,1021.92,46.1,121.7
"2019-12-25 16:33:34+00",11.7,12.7,,43,406,314,10,1021.9,45.6,146.9
"2019-12-25 16:38:34+00",11.0,13.0,,43,385,294,17,1021.89,45.5,131.4
"2019-12-25 16:43:34+00",11.5,12.5,,43.1,410,290,12,1021.8,45.6,148.1
"2019-12-25 16:48:34+00",12.2,13.2,,43.2,434,323,11,1021.72,45.7,157.8
"2019-12-25 16:53:34+00",11.2,12.2,,43.3,393,295,9,1021.74,45.9,170.9
"2019-12-25 16:58:34+00",11.6,12.6,,43.2,389,314,5,1021.61,45.8,143.4
"2019-12-25 17:03:34+00",11.0,13.0,,43.4,384,277,30,1021.64,46.2,163.3
"2019-12-25 17:08:34+00",10.9,11.9,,43.5,249,532,-159,1021.45,46.5,168.6
"2019-12-25 17:13:34+00",9.8,11.8,,43.6,371,202,72,1021.38,46.4,126
"2019-12-25 17:18:34+00",8.7,10.7,,43.9,346,176,40,1021.25,46.8,157.4
"2019-12-25 17:23:34+00",8.4,9.4,,43.9,301,199,1,1021.11,47.2,165.1
"2019-12-25 17:28:34+00",8.0,9.0,,44.1,309,168,1,1020.96,47.2,141.3
"2019-12-25 17:33:34+00",7.9,8.9,,44.3,311,149,1,1020.8,47.4,172.7
"2019-12-25 17:38:34+00",7.2,8.2,,44.5,285,126,40,1020.79,47.8,151.5
"2019-12-25 17:43:34+00",6.9,7.9,,44.7,293,88,21,1020.76,48.4,125.9
"2019-12-25 17:48:34+00",5.6,6.6,,44.8,230,71,-4,1020.7,48.4,63.8
"2019-12-25 17:53:34+00",5.3,6.3,,45.1,212,93,21,1020.7,48.6,87.7
"2019-12-25 17:58:34+00",3.9,4.9,,45.5,145,37,36,1020.69,48.6,103.8
"2019-12-25 18:03:34+00",4.2,5.2,,45.8,159,81,31,1020.65,49,108.9
"2019-12-25 18:08:34+00",3.6,4.6,,46,146,-13,3,1020.66,49.3,142.5
"2019-12-25 18:13:34+00",3.7,4.7,,46.3,146,-20,12,1020.67,49.6,146.8
"2019-12-25 18:18:34+00",3.5,4.5,,46.4,136,18,3,1020.65,50,145.8
"2019-12-25 18:23:34+00",2.9,3.9,,46.6,120,13,11,1020.53,50.4,132.9
"2019-12-25 18:28:34+00",5.7,6.7,,46.3,234,-42,18,1020.53,50.3,134.9
"2019-12-25 18:33:34+00",6.5,7.5,,46.2,280,-37,4,1020.47,49.9,119.8
"2019-12-25 18:38:34+00",6.2,8.2,,46,268,11,16,1020.43,49.6,99.8
"2019-12-25 18:43:34+00",6.8,7.8,,45.8,299,21,16,1020.45,49.3,117
"2019-12-25 18:48:34+00",7.2,8.2,,45.7,314,17,35,1020.41,49.6,109.6
"2019-12-25 18:53:34+00",7.5,8.5,,45.5,321,-70,11,1020.46,48.9,81.5
"2019-12-25 18:58:34+00",8.6,9.6,,45.4,369,-78,11,1020.43,48.2,100.3
"2019-12-25 19:03:34+00",8.4,9.4,,45.2,352,16,1,1020.34,48.1,87.5
"2019-12-25 19:08:34+00",8.2,10.2,,45.4,357,-57,0,1020.4,47.7,93.4
"2019-12-25 19:13:34+00",9.2,10.2,,45.2,341,103,-55,1020.26,47.5,49.3
"2019-12-25 19:18:34+00",8.4,9.4,,45.1,312,80,-1,1020.29,47.4,37.8
"2019-12-25 19:23:34+00",9.0,9.0,,44.8,325,81,-67,1020.34,47.1,8.6
"2019-12-25 19:28:34+00",9.0,10.0,,44.6,253,234,-125,1020.32,46.6,15.1
"2019-12-25 19:33:34+00",8.5,9.5,,44.5,160,390,-169,1020.4,46.4,17.6
"2019-12-25 19:38:34+00",7.1,8.1,,44.5,209,170,-67,1020.38,46.5,0.1
"2019-12-25 19:43:34+00",8.6,9.6,,44.3,27,576,-319,1020.31,46.2,0
"2019-12-25 19:48:34+00",8.0,10.0,,44.3,184,254,-134,1020.49,45.9,0
"2019-12-25 19:53:34+00",8.7,9.7,,44.2,54,574,-283,1020.49,45.5,0
"2019-12-25 19:58:34+00",7.9,8.9,,44.3,-361,1220,-657,1020.63,45.4,0
"2019-12-25 20:03:34+00",8.6,9.6,,44.2,-477,1443,-797,1020.51,45.2,0
"2019-12-25 20:08:34+00",7.5,8.5,,44.2,8,482,-277,1020.49,45,0
"2019-12-25 20:13:34+00",8.5,9.5,,44.2,-89,683,-424,1020.57,44.8,0
"2019-12-25 20:18:34+00",7.2,8.2,,44.2,126,230,-163,1020.55,44.7,0
"2019-12-25 20:23:34+00",7.9,8.9,,44.2,68,339,-239,1020.52,44.6,0
"2019-12-25 20:28:34+00",7.1,8.1,,44.2,195,-5,-63,1020.59,44.5,0
"2019-12-25 20:33:34+00",6.2,7.2,,44.2,164,39,-64,1020.64,44.4,0
"2019-12-25 20:38:34+00",6.3,8.3,,44.1,206,-53,-26,1020.7,44.3,0
"2019-12-25 20:43:34+00",6.3,7.3,,44.1,190,-66,-35,1020.72,44.3,0
"2019-12-25 20:48:34+00",6.6,8.6,,44,185,-41,-42,1020.82,44.1,0
"2019-12-25 20:53:34+00",7.9,8.9,,43.9,145,33,-112,1020.66,44,0
"2019-12-25 20:58:34+00",7.5,8.5,,43.8,216,-95,-39,1020.74,43.8,0
"2019-12-25 21:03:34+00",7.6,8.6,,43.7,222,-185,-21,1020.75,43.6,0
"2019-12-25 21:08:34+00",8.2,9.2,,43.7,241,-234,-13,1020.62,43.4,0
"2019-12-25 21:13:34+00",7.5,8.5,,43.7,216,-209,-14,1020.62,43.2,0
"2019-12-25 21:18:34+00",7.6,8.6,,43.6,225,-241,-1,1020.53,43,0
"2019-12-25 21:23:34+00",7.7,8.7,,43.4,229,-247,6,1020.5,42.8,0
"2019-12-25 21:28:34+00",5.7,6.7,,43.4,149,-105,-22,1020.93,42.7,0
"2019-12-25 21:33:34+00",5.4,6.4,,43.4,152,-110,-11,1021.1,42.5,0
"2019-12-25 21:38:34+00",5.7,5.7,,43.4,150,-77,-29,1021.24,42.3,0
"2019-12-25 21:43:34+00",5.4,6.4,,43.5,166,-161,1,1021.42,42,0
"2019-12-25 21:48:34+00",6.3,6.3,,43.4,187,-200,-2,1021.18,41.7,0
"2019-12-25 21:53:34+00",7.3,7.3,,43.5,216,-235,-1,1021.06,41.4,0
"2019-12-25 21:58:34+00",7.0,7.0,,43.5,201,-229,-5,1021.15,41.1,0
"2019-12-25 22:03:34+00",6.8,6.8,,43.5,173,-234,-6,1021.32,41,0
"2019-12-25 22:08:34+00",7.5,7.5,,43.5,187,-262,-4,1021.22,40.8,0
"2019-12-25 22:13:34+00",8.0,8.0,,43.5,189,-288,-3,1021.02,40.5,0
"2019-12-25 22:18:34+00",8.2,9.2,,43.4,195,-297,-6,1020.94,40.1,0
"2019-12-25 22:23:34+00",7.9,8.9,,43.3,201,-274,-6,1021.01,39.8,0
"2019-12-25 22:28:34+00",7.2,7.2,,43.3,182,-252,-6,1021.18,39.8,0
"2019-12-25 22:33:34+00",7.3,8.3,,43.2,180,-256,-4,1021.06,39.8,0
"2019-12-25 22:38:34+00",7.8,8.8,,43.2,185,-277,-3,1020.99,39.9,0
"2019-12-25 22:43:34+00",7.7,7.7,,43.1,194,-270,-3,1021.01,39.7,0
"2019-12-25 22:48:34+00",7.1,7.1,,43.2,178,-246,-7,1021.27,39.6,0
"2019-12-25 22:53:34+00",6.8,6.8,,43.2,185,-227,-10,1021.21,39.8,0
"2019-12-25 22:58:34+00",6.8,6.8,,43.2,173,-236,-5,1020.97,39.9,0
"2019-12-25 23:03:34+00",7.8,7.8,,43.2,184,-282,-7,1020.86,40.2,0
"2019-12-25 23:08:34+00",7.7,7.7,,43.4,180,-282,-6,1020.98,40,0
"2019-12-25 23:13:34+00",8.3,8.3,,43.4,161,-318,-8,1020.95,39.8,0
"2019-12-25 23:18:34+00",7.4,8.4,,43.5,135,-287,-4,1021.04,40.1,0
"2019-12-25 23:23:34+00",6.7,6.7,,43.5,128,-258,-5,1021.11,40.3,0
"2019-12-25 23:28:34+00",6.9,7.9,,43.6,135,-265,-5,1021.12,40.4,0
"2019-12-25 23:33:34+00",6.1,6.1,,43.5,117,-235,-4,1021.04,40.2,0
"2019-12-25 23:38:34+00",2.0,3.0,,43,6,-72,4,1021.2,39.9,0
"2019-12-25 23:43:34+00",1.1,1.1,,42.3,-2,38,4,1021.4,39.2,0
"2019-12-25 23:48:34+00",1.9,2.9,,42.1,-37,-65,4,1021.45,39.2,0
"2019-12-25 23:53:34+00",1.6,1.6,,42,-51,-8,3,1021.46,38.9,0
"2019-12-25 23:58:34+00",3.1,3.1,,41.9,-124,27,5,1021.53,38.7,0
